Tracking 27111 objects as of 29-Mar-2023
HD Live streaming from Space Station
objects crossing your sky now

STARLINK-5298

Track STARLINK-5298 now!
10-day predictions
STARLINK-5298 is classified as:


NORAD ID: 55281
Int'l Code: 2023-010N
Perigee: 530.5 km
Apogee: 534.7 km
Inclination: 70.0 °
Period: 95.1 minutes
Semi major axis: 6903 km
RCS: Unknown
Launch date: January 19, 2023
Source: United States (US)
Launch site: AIR FORCE WESTERN TEST RANGE (AFWTR)
Your satellite tracking list
Your tracking list is empty




NASA's NSSDC Master Catalog

Two Line Element Set (TLE):
1 55281U 23010N   23087.66668981 -.01054100  00000-0 -63288-1 0  9998
2 55281  70.0007 240.3158 0003090 272.3449 335.8014 15.13526904 11139
Source of the keplerian elements: AFSPC